N5XJB Weather Reports


Display with metric or nautical units.
time (UTC)temp
F
wind
direction
speed
MPH
gust
MPH
rain 1hr
in
rain 24hr
in
rain mn
in
humidity
%
barometer
mb
20260504234309 78 186 4.0 4.0 0.00 0.00 0.00 68 1011.4
20260504233805 78 206 2.0 2.0 0.00 0.00 0.00 68 1011.7
20260504233301 79 168 2.0 2.0 0.00 0.00 0.00 67 1011.4
20260504232758 79 282 2.0 2.0 0.00 0.00 0.00 66 1011.4
20260504232255 79 115 2.0 2.0 0.00 0.00 0.00 65 1011.7
20260504231752 79 116 2.0 2.0 0.00 0.00 0.00 65 1011.7
20260504231248 79 96 5.0 6.0 0.00 0.00 0.00 66 1011.7
20260504230744 79 126 0.0 0.0 0.00 0.00 0.00 65 1011.7
20260504230243 80 115 2.0 2.0 0.00 0.00 0.00 64 1011.7
20260504225741 80 282 0.0 0.0 0.00 0.00 0.00 64 1012.1
20260504225237 80 132 2.0 2.0 0.00 0.00 0.00 64 1011.7
20260504224735 80 143 2.0 2.0 0.00 0.00 0.00 64 1012.1
20260504224232 80 111 2.0 2.0 0.00 0.00 0.00 64 1012.1
20260504223728 80 61 2.0 2.0 0.00 0.00 0.00 64 1012.1
20260504223223 80 130 2.0 2.0 0.00 0.00 0.00 64 1012.1
20260504222721 80 129 0.0 0.0 0.00 0.00 0.00 64 1012.1
20260504222218 80 139 1.0 1.0 0.00 0.00 0.00 63 1012.1
20260504221715 81 108 2.0 2.0 0.00 0.00 0.00 62 1012.4
20260504221212 81 61 0.0 0.0 0.00 0.00 0.00 60 1012.4
20260504220708 81 120 2.0 2.0 0.00 0.00 0.00 59 1012.4
20260504220206 82 90 3.0 3.0 0.00 0.00 0.00 59 1012.4
20260504215702 82 90 3.0 3.0 0.00 0.00 0.00 59 1012.4
20260504215200 82 210 0.0 0.0 0.00 0.00 0.00 58 1012.4
20260504214655 83 79 2.0 2.0 0.00 0.00 0.00 56 1012.4
20260504214152 83 286 0.0 0.0 0.00 0.00 0.00 56 1012.7
20260504213649 83 264 0.0 0.0 0.00 0.00 0.00 56 1012.4
20260504213145 83 195 0.0 0.0 0.00 0.00 0.00 56 1012.4
20260504212642 83 93 0.0 0.0 0.00 0.00 0.00 56 1012.7
20260504212138 83 56 2.0 2.0 0.00 0.00 0.00 55 1012.4
20260504211636 83 132 2.0 2.0 0.00 0.00 0.00 56 1013.1
20260504211132 84 128 2.0 2.0 0.00 0.00 0.00 54 1012.7
20260504210630 85 113 0.0 0.0 0.00 0.00 0.00 53 1012.7
20260504210126 84 144 2.0 2.0 0.00 0.00 0.00 50 1012.7
20260504205624 84 168 2.0 2.0 0.00 0.00 0.00 51 1012.7
20260504205121 84 215 0.0 0.0 0.00 0.00 0.00 53 1013.1
20260504204620 85 102 2.0 2.0 0.00 0.00 0.00 51 1013.1
20260504204118 86 72 3.0 3.0 0.00 0.00 0.00 51 1013.1
20260504203617 85 120 0.0 0.0 0.00 0.00 0.00 52 1013.1
20260504203114 84 288 0.0 0.0 0.00 0.00 0.00 52 1013.1
20260504202609 84 117 2.0 2.0 0.00 0.00 0.00 52 1013.1
20260504202106 84 126 2.0 2.0 0.00 0.00 0.00 51 1013.4
20260504201603 83 50 0.0 0.0 0.00 0.00 0.00 53 1013.7
20260504201101 83 66 1.0 1.0 0.00 0.00 0.00 54 1013.7
20260504200556 83 163 1.0 1.0 0.00 0.00 0.00 53 1013.7
20260504200054 84 264 0.0 0.0 0.00 0.00 0.00 52 1014.1
20260504195550 85 65 2.0 2.0 0.00 0.00 0.00 53 1014.1
20260504195046 84 60 2.0 2.0 0.00 0.00 0.00 51 1014.1
20260504194543 85 106 2.0 2.0 0.00 0.00 0.00 51 1014.1
20260504194038 86 186 0.0 0.0 0.00 0.00 0.00 50 1014.1
20260504193535 85 332 2.0 2.0 0.00 0.00 0.00 52 1014.4
20260504193034 85 306 0.0 0.0 0.00 0.00 0.00 52 1014.4
20260504192532 84 306 0.0 0.0 0.00 0.00 0.00 53 1014.4
20260504192030 83 105 0.0 0.0 0.00 0.00 0.00 53 1014.8
20260504191527 84 100 0.0 0.0 0.00 0.00 0.00 52 1014.4
20260504191023 85 122 2.0 2.0 0.00 0.00 0.00 50 1014.4
20260504190519 85 51 2.0 2.0 0.00 0.00 0.00 50 1014.8
20260504190016 85 306 2.0 2.0 0.00 0.00 0.00 53 1014.8
20260504185513 84 163 0.0 0.0 0.00 0.00 0.00 52 1014.8
20260504185009 83 126 0.0 0.0 0.00 0.00 0.00 53 1015.1
20260504184504 83 126 2.0 2.0 0.00 0.00 0.00 52 1015.1
20260504184000 82 62 2.0 2.0 0.00 0.00 0.00 55 1015.1
20260504183458 83 89 1.0 1.0 0.00 0.00 0.00 53 1015.1
20260504182956 83 115 2.0 2.0 0.00 0.00 0.00 55 1014.8
20260504182452 84 252 2.0 2.0 0.00 0.00 0.00 51 1015.1
20260504181950 84 280 3.0 3.0 0.00 0.00 0.00 52 1014.8
20260504181446 84 83 2.0 2.0 0.00 0.00 0.00 53 1014.8
20260504180945 83 150 2.0 2.0 0.00 0.00 0.00 54 1015.1
20260504180444 84 120 2.0 2.0 0.00 0.00 0.00 51 1015.1
20260504175941 83 91 0.0 0.0 0.00 0.00 0.00 50 1015.4
20260504175438 82 144 0.0 0.0 0.00 0.00 0.00 53 1015.8
20260504174936 82 108 2.0 2.0 0.00 0.00 0.00 54 1015.4
20260504174433 81 199 2.0 2.0 0.00 0.00 0.00 55 1015.4
20260504173931 81 217 0.0 0.0 0.00 0.00 0.00 54 1015.8
20260504173426 82 174 2.0 2.0 0.00 0.00 0.00 54 1015.8
20260504172925 82 115 0.0 0.0 0.00 0.00 0.00 54 1015.8
20260504172420 81 234 0.0 0.0 0.00 0.00 0.00 55 1015.8
20260504171917 81 174 2.0 2.0 0.00 0.00 0.00 56 1015.8
20260504171414 82 144 2.0 2.0 0.00 0.00 0.00 54 1016.1
20260504170911 81 205 2.0 2.0 0.00 0.00 0.00 55 1016.1
20260504170407 81 113 0.0 0.0 0.00 0.00 0.00 55 1016.1
20260504160326 81 84 0.0 0.0 0.00 0.00 0.00 55 1016.8
20260504150751 78 318 0.0 0.0 0.00 0.00 0.00 60 1016.8
20260504150248 78 127 0.0 0.0 0.00 0.00 0.00 59 1017.1
20260504141217 75 99 0.0 0.0 0.00 0.00 0.00 61 1016.8
20260504140714 76 155 0.0 0.0 0.00 0.00 0.00 60 1017.1
20260504140209 75 162 2.0 2.0 0.00 0.00 0.00 61 1016.8
20260504130638 69 158 0.0 0.0 0.00 0.00 0.00 68 1016.8
20260504130134 67 160 0.0 0.0 0.00 0.00 0.00 68 1016.8
20260504110526 57 246 0.0 0.0 0.00 0.00 0.00 90 1016.5
20260504100442 58 246 0.0 0.0 0.00 0.00 0.00 88 1016.8
20260504081835 61 246 0.0 0.0 0.00 0.00 0.00 81 1017.5
20260504081332 61 246 0.0 0.0 0.00 0.00 0.00 81 1017.5
20260504080828 61 246 0.0 0.0 0.00 0.00 0.00 80 1017.5
20260504080325 61 246 0.0 0.0 0.00 0.00 0.00 80 1017.5
20260504070252 64 246 0.0 0.0 0.00 0.00 0.00 72 1018.9
20260504060213 63 246 0.0 0.0 0.00 0.00 0.00 73 1018.9
20260504050641 63 246 0.0 0.0 0.00 0.00 0.00 72 1019.3
20260504050138 62 246 0.0 0.0 0.00 0.00 0.00 75 1019.3
20260504045635 63 246 0.0 0.0 0.00 0.00 0.00 75 1019.3
20260504045135 63 246 0.0 0.0 0.00 0.00 0.00 74 1019.6
20260504044633 63 246 0.0 0.0 0.00 0.00 0.00 74 1019.6
20260504044129 64 246 0.0 0.0 0.00 0.00 0.00 73 1019.6
20260504043626 64 246 0.0 0.0 0.00 0.00 0.00 72 1019.6
20260504043124 64 246 0.0 0.0 0.00 0.00 0.00 70 1019.6
20260504042621 65 246 0.0 0.0 0.00 0.00 0.00 70 1019.6
20260504042117 65 246 0.0 0.0 0.00 0.00 0.00 67 1019.6
20260504041613 66 246 0.0 0.0 0.00 0.00 0.00 67 1019.6
20260504041110 66 246 0.0 0.0 0.00 0.00 0.00 66 1019.6
20260504040607 66 246 0.0 0.0 0.00 0.00 0.00 65 1019.6
20260504040104 67 246 0.0 0.0 0.00 0.00 0.00 65 1019.6
20260504035600 67 246 0.0 0.0 0.00 0.00 0.00 64 1019.6
20260504035056 67 138 0.0 0.0 0.00 0.00 0.00 64 1019.6
20260504034555 67 138 0.0 0.0 0.00 0.00 0.00 62 1019.6
20260504034051 67 138 0.0 0.0 0.00 0.00 0.00 64 1019.6
20260504033549 67 138 0.0 0.0 0.00 0.00 0.00 62 1019.6
20260504033046 68 138 0.0 0.0 0.00 0.00 0.00 62 1019.6
20260504032543 68 138 0.0 0.0 0.00 0.00 0.00 62 1019.6
20260504032040 68 138 0.0 0.0 0.00 0.00 0.00 62 1019.6
20260504031537 68 138 0.0 0.0 0.00 0.00 0.00 61 1019.6
20260504031033 68 138 0.0 0.0 0.00 0.00 0.00 59 1019.3
20260504030531 68 138 0.0 0.0 0.00 0.00 0.00 60 1019.3
20260504030027 69 138 0.0 0.0 0.00 0.00 0.00 59 1019.6
20260504025524 69 138 0.0 0.0 0.00 0.00 0.00 59 1019.6
20260504025020 69 138 0.0 0.0 0.00 0.00 0.00 57 1019.3
20260504024518 70 138 0.0 0.0 0.00 0.00 0.00 56 1019.3
20260504024015 70 138 0.0 0.0 0.00 0.00 0.00 56 1019.6
20260504023511 70 148 0.0 0.0 0.00 0.00 0.00 56 1019.6
20260504023007 70 149 1.0 1.0 0.00 0.00 0.00 55 1019.3
20260504022503 71 108 0.0 0.0 0.00 0.00 0.00 54 1019.3
20260504022000 71 95 0.0 0.0 0.00 0.00 0.00 54 1018.9
20260504021457 71 141 1.0 1.0 0.00 0.00 0.00 54 1018.9
20260504020954 71 127 0.0 0.0 0.00 0.00 0.00 54 1018.9
20260504020451 71 142 0.0 0.0 0.00 0.00 0.00 54 1018.9
20260504015948 71 142 0.0 0.0 0.00 0.00 0.00 53 1018.9
20260504015444 72 138 0.0 0.0 0.00 0.00 0.00 53 1018.9
20260504014939 72 97 0.0 0.0 0.00 0.00 0.00 53 1018.9
20260504014436 72 96 0.0 0.0 0.00 0.00 0.00 52 1018.9
20260504013933 72 234 1.0 1.0 0.00 0.00 0.00 51 1018.6
20260504013432 73 114 2.0 2.0 0.00 0.00 0.00 51 1018.6
20260504012927 73 96 0.0 0.0 0.00 0.00 0.00 51 1018.9
20260504012425 73 132 0.0 0.0 0.00 0.00 0.00 50 1018.6
20260504011922 73 128 2.0 2.0 0.00 0.00 0.00 50 1018.6
20260504011419 73 134 1.0 1.0 0.00 0.00 0.00 49 1018.6
20260504010915 73 132 2.0 2.0 0.00 0.00 0.00 49 1018.6
20260504010411 73 132 0.0 0.0 0.00 0.00 0.00 50 1018.6
20260504005907 74 132 0.0 0.0 0.00 0.00 0.00 49 1018.6
20260504005404 74 132 2.0 2.0 0.00 0.00 0.00 48 1018.6
20260504004902 74 132 0.0 0.0 0.00 0.00 0.00 48 1018.6
20260504004400 74 137 0.0 0.0 0.00 0.00 0.00 48 1018.6
20260504003856 74 138 0.0 0.0 0.00 0.00 0.00 48 1018.6
20260504003353 75 137 0.0 0.0 0.00 0.00 0.00 47 1018.6
20260504002849 75 137 1.0 1.0 0.00 0.00 0.00 47 1018.6
20260504002346 75 137 2.0 2.0 0.00 0.00 0.00 46 1018.9
20260504001844 76 137 2.0 2.0 0.00 0.00 0.00 45 1018.6
20260504001341 77 222 2.0 2.0 0.00 0.00 0.00 44 1018.6
20260504000837 77 126 1.0 1.0 0.00 0.00 0.00 43 1018.6
20260504000335 77 101 2.0 2.0 0.00 0.00 0.00 43 1018.9
20260503235832 78 122 0.0 0.0 0.00 0.00 0.00 42 1018.6
20260503235330 78 152 0.0 0.0 0.00 0.00 0.00 39 1018.9
20260503234827 78 154 2.0 2.0 0.00 0.00 0.00 38 1018.9